COSMOS 793

Satellite information

Favourite Embed

Satellite Type and Status

PAYLOADIN ORBIT

Key statistics

Satellite COSMOS 793 at a glance.

Uptime

18058

Days in orbit

Revolutions

≈ 12.5

Per day

Orbit

LEO

Low Earth Orbit

Inclination

74.1

Latest

Satellite identification and parameters

Extended collection of information and parameters for COSMOS 793.

Object identification

Identified? True

Debris? False

Object name: COSMOS 793

International designator: 1976-008C

Object number (NORAD): 8609

Object ID (CCSDS): 8609

Country: COMMONWEALTH OF INDEPENDENT STATES (CIS)

Current information (Y/N): Y

RCS size: MEDIUM

Orbital parameters

Period: 114.957 minutes

Inclination: 74.0559 deg

SMA: 7831.611 km

Apoapsis: 1489.82 km

Periapsis: 1417.133 km

RAAN: 343.6451 deg

Eccentricy: 0.0046406

Argument of periapsis: 164.5458 deg

Mean anomaly: 263.3393 deg

Mean motion: 12.52639408 rev/day

Mean motion (dot): -0.00000019 rev/day2

B* drag term: -0.000020623 1/REarth

Two-line elements (TLE)

Creation date: July 6, 2025, 6:05 p.m.

Reference frame: TEME

Reference center: EARTH

Epoch: July 6, 2025, 1:50 p.m. UTC

TLE line 0: 0 COSMOS 793

TLE line 1: 1 08609U 76008C 25187.57684378 -.00000019 00000-0 -20623-4 0 9994

TLE line 2: 2 08609 74.0559 343.6451 0046406 164.5458 263.3393 12.52639408260663

Live tracking on map

Real-time ground track for satellite COSMOS 793.

In-orbit conjunctions

There are no conjunctions computed for COSMOS 793, at the moment. Check back to stay up to date, as we update our databases every day.

Go to all conjunctions

Associated space launch

Military communications satellites

COSMOS 793 was lifted into orbit during the mission ‘Kosmos-3M | Strela-1M 105-112’, on board a Kosmos-3M space rocket.

The launch took place on Jan. 28, 1976, 10:39 a.m. from 132/1 (132L).

For more information about the launch, click the button.

Launch to space Kosmos-3M | Strela-1M 105-112
Kosmos-3M | Strela-1M 105-112

Agency: N/A

Status: Launch Successful

Launch date: Jan. 28, 1976, 10:39 a.m. UTC

Rocket: Kosmos-3M

Launch pad: 132/1 (132L)

Location: Plesetsk Cosmodrome, Russian Federation

...

Latest news about this satellite

There are no fresh news available about this satellite. Check back as we update our databases every day.


Newsletter sign-up

Weekly statistics, charts and insights to help you stay on top of the space industry.